星链-34149 (STARLINK-34149)

导读

STARLINK-34149是美国SpaceX公司星链(Starlink)星座的一员,于2025年5月24日发射入轨,是一款低轨宽带通信卫星。作为星链大规模组网计划的组成部分,它延续了星链量产卫星的设计,采用平板构型与太阳能供电,搭载Ku/Ka波段通信载荷,配备氪工质霍尔推进器,具备自主避撞能力,服务于全球高速卫星互联网接入,设计寿命约5-7年,退役后将受控离轨坠入大气层焚毁。

基本信息
目录编号:
64140
目录名称:
STARLINK-34149
国际标识:
2025-111T
轨道中心:
EARTH
卫星名称:
星链-34149
卫星全名:
星链-34149 (STARLINK-34149)
卫星状态:
在轨 (已飞行386 天)
发射日期:
2025-05-24 UTC
国别 :
美国 (US)
星等 :
--
轨道信息
数据来源 国际轨道数据
星历时间: 2026-06-13T21:04:33+0800
12小时前
查看轨道信息
半长轴: 6861.129km
偏心率: 0.0001043
轨道倾角: 43.002°
近地点辐角 258.089°
升交点赤经 256.491°
平近点角 101.984°
近地点: 482.276km
远地点: 483.708km
周期: 94.266分钟
每日圈数: 15.275992
详细信息
固有亮度:
5
最大亮度:
2.5
卫星平台:
Starlink V1.0
覆盖范围:
全球
运营商:
太空探索技术公司
运营商所在国:
美国
制造商(研发单位):
太空探索技术公司
制造商所在国:
美国
使用方式:
暂无
卫星简介
Starlink 计划是 SpaceX 推出的全球卫星互联网项目,通过发射低轨道卫星,为全球尤其是偏远地区提供高速、低延迟的互联网服务。自 2019 年起,Starlink 已部署数千颗卫星,旨在缩小全球数字鸿沟,推动互联网普及。该项目还为军事、航空等行业提供通信支持,带来广泛经济效益。
2D轨道图
3D轨道图
轨道高度分析图
轨道倾角分析图
轨道综合分析图
查看轨道综合分析图